{"data":{"norad_id":59266,"epoch":"2026-05-25T03:14:38.059008Z","epoch_age_seconds":74030,"freshness":"FRESH","line1":"1 59266U 24050N   26145.13516272  .00000786  00000+0  38659-4 0  9999","line2":"2 59266  53.1601 185.8481 0000880  81.2927 278.8173 15.30198642122253","mean_motion":15.30198642,"eccentricity":8.8e-5,"inclination_deg":53.1601,"raan_deg":185.8481,"arg_perigee_deg":81.2927,"mean_anomaly_deg":278.8173,"bstar":3.8659e-5,"rev_number":12225,"period_min":94.105429221783,"perigee_km":474.61602882662,"apogee_km":475.82221950447,"semimajor_km":6853.3561241655,"source":"CELESTRAK","updated_at":"2026-05-25T13:38:18.876071Z"}}